Location: Caracas
(10.4880°N, 66.8792°W)
Time: 04:29:40
(UTC+00:00)

SL-08 R/B - Pass Details

Date: 03 August 2024
Orbit: 670 x 733 km, 98.5° (Epoch: 08 September)

Event Time Altitude Azimuth Distance (km) Brightness Sun altitude
Rises 23:13:26 0° 7° (N) 3,050 6.8 -6.2°
Reaches altitude 10° 23:15:40 10° 4° (N) 2,143 6.0 -6.7°
Maximum altitude 23:20:19 66° 283° (WNW) 766 3.8 -7.8°
Drops below altitude 10° 23:25:04 10° 201° (SSW) 2,185 5.9 -8.9°
Sets 23:27:22 0° 198° (SSW) 3,114 6.7 -9.5°
